Wind_Speed
12 15 15 14 12 10 11 14 17 19 20 19 16 13 13 12 10 9 9 9 7 5 5 4 3 4 9 13 13 13 12 13 13 16 17 17 17 16 17 17 15 13 12
10 13 13 14 13 11 10 12 14 17 19 21 18 14 13 12 10 8 8 8 7 6 5 5 5 4 10 14 14 13 11 12 12 13 16 22 19 17 17 17 18 18 17
7 10 11 13 13 11 10 11 13 14 17 20 19 16 14 12 11 10 9 9 9 7 6 7 7 4 6 9 11 11 10 11 11 10 12 12 15 16 15 15 18 22 22
4 5 8 10 11 12 10 10 11 13 16 19 19 17 15 13 12 11 10 12 12 10 8 8 7 5 2 8 9 9 9 10 9 7 7 4 6 9 9 10 12 16 18
2 2 4 8 8 10 10 9 9 10 14 17 18 16 15 15 14 13 12 13 14 13 10 8 7 5 1 7 9 10 9 7 4 3 4 3 3 5 6 5 7 11 13
4 3 2 4 5 7 8 7 7 7 10 14 16 15 15 15 15 15 14 13 13 12 11 8 6 6 2 5 8 9 8 7 5 4 3 4 5 4 6 8 7 8 11
5 5 3 1 3 5 6 5 4 4 6 9 13 15 15 16 17 17 16 13 11 10 10 9 7 7 5 2 7 9 9 8 6 3 3 4 6 5 6 7 8 7 7
6 6 5 3 2 2 4 4 3 1 2 4 8 12 14 15 17 18 17 15 12 11 10 9 7 6 5 1 6 5 8 7 5 2 1 1 4 5 4 6 7 6 7
7 8 7 6 5 2 1 3 2 1 1 2 4 8 11 12 13 15 17 17 14 11 10 9 7 4 3 2 3 5 4 4 2 3 2 3 3 2 1 5 7 5 5
9 10 9 9 8 6 4 1 2 2 3 5 5 7 7 8 8 10 13 15 14 11 9 8 7 3 1 4 5 6 4 3 0 1 5 5 2 3 4 1 7 5 3
9 10 10 10 10 9 8 6 4 4 5 7 8 9 7 5 6 6 7 9 11 11 10 9 7 5 5 6 8 7 6 5 4 3 6 6 4 2 2 2 2 2 3
9 9 9 11 12 12 10 8 8 7 7 9 10 10 9 7 6 6 5 6 7 8 8 8 6 5 6 8 9 8 8 8 8 7 8 8 7 6 4 4 3 3 4
10 10 10 10 12 13 12 10 9 9 10 11 12 13 12 10 8 7 6 6 6 7 6 6 5 5 7 9 11 12 12 12 11 11 11 11 10 10 8 8 7 5 5
13 11 10 12 13 13 14 12 12 12 12 14 15 15 15 14 11 10 10 8 8 8 6 6 4 5 7 9 12 15 17 17 15 15 16 15 14 14 14 13 11 9 8
18 15 11 11 11 13 15 15 15 14 15 16 16 17 16 17 14 13 13 13 12 11 8 8 5 6 9 10 11 16 20 23 23 23 23 21 20 19 18 17 16 16 14
22 17 15 12 12 14 15 16 16 16 17 17 17 18 18 18 16 14 15 17 17 15 12 9 7 8 10 11 12 16 19 24 28 30 27 25 24 23 23 22 22 22 21
22 22 19 16 16 17 19 20 20 19 18 18 17 18 18 18 17 16 17 19 20 18 17 17 16 16 13 13 12 16 20 21 24 28 28 26 26 26 26 25 23 22 21
23 24 23 19 18 19 21 20 18 17 16 17 18 18 17 17 16 18 18 19 20 19 21 22 23 23 19 15 16 17 21 23 24 25 27 25 23 24 24 24 21 20 20
24 25 27 25 20 19 20 19 16 16 18 17 16 16 16 17 18 18 18 19 19 22 25 27 26 24 21 21 22 22 23 24 24 24 26 25 24 24 23 24 24 23 20
25 27 30 31 25 22 23 24 23 21 19 17 14 16 18 18 18 19 18 21 22 24 27 31 29 25 25 26 25 25 24 22 23 22 23 24 23 23 23 24 25 24 21
27 25 26 29 28 25 24 26 25 21 20 19 18 19 19 20 19 19 21 22 24 26 28 29 29 26 26 26 25 24 23 21 21 21 21 23 24 23 22 23 24 22 22
30 28 27 29 32 29 26 25 25 22 21 22 22 22 23 23 22 22 24 24 26 29 28 26 26 24 25 26 26 25 23 22 19 20 22 23 24 24 23 23 25 23 22
37 32 29 31 36 36 32 27 27 26 26 26 24 25 26 25 25 26 26 26 27 26 23 23 24 25 25 24 24 25 25 24 23 23 25 25 26 25 23 23 25 24 23
36 36 36 36 37 43 41 34 32 29 27 26 27 26 27 28 28 28 26 24 23 22 22 21 24 27 25 25 24 25 26 29 27 23 27 25 25 26 25 24 25 24 24
37 37 40 44 44 46 40 35 33 31 25 24 28 28 29 29 28 28 25 25 23 20 21 22 25 28 27 28 27 27 26 28 24 27 24 23 25 26 27 25 26 25 25
41 44 44 48 46 47 38 32 32 29 24 25 29 29 28 29 29 29 26 25 21 22 23 23 27 27 26 29 30 29 28 29 28 28 25 24 26 27 28 26 27 27 26
Wind_Direction
56 54 49 51 60 64 59 53 49 45 43 42 41 43 42 47 55 58 54 55 52 38 20 352 302 262 218 220 222 220 220 226 228 231 230 236 238 239 243 244 242 242 249
49 51 41 42 53 63 60 52 45 43 39 40 40 45 48 51 58 60 51 40 33 30 30 13 345 271 223 225 221 213 210 224 236 247 245 242 238 246 249 245 243 241 247
39 48 38 35 46 56 60 57 49 44 39 39 41 46 50 53 53 54 53 37 29 24 27 20 6 347 225 223 209 200 204 217 230 245 246 231 232 230 227 238 247 247 245
16 38 39 31 38 48 51 50 49 43 38 37 39 45 51 52 50 47 42 33 32 26 16 13 5 4 194 194 195 200 200 207 217 228 215 184 203 211 220 246 245 235 233
298 347 31 29 31 48 50 49 49 44 38 36 38 43 50 51 48 45 37 29 29 29 22 12 360 352 184 195 200 204 201 209 213 201 180 146 172 207 229 235 232 220 221
274 274 339 20 23 41 44 45 47 42 38 38 41 44 48 50 46 42 37 30 28 29 29 27 18 21 32 184 197 201 197 203 204 178 188 190 183 202 249 229 232 215 222
260 256 277 325 6 33 37 44 56 45 41 38 41 45 48 48 45 41 38 33 33 32 25 27 31 37 41 187 202 205 196 210 209 214 247 226 205 241 247 224 218 217 228
269 257 251 247 305 11 28 35 49 46 46 26 37 43 47 49 46 43 40 37 36 33 22 13 21 34 42 158 200 201 208 211 225 260 162 188 247 261 251 213 211 225 229
291 271 254 241 243 270 336 24 30 283 278 312 0 27 39 47 48 43 38 36 33 32 29 17 3 15 42 100 171 182 181 208 296 345 210 169 162 93 193 240 217 216 222
302 284 264 245 239 235 240 260 18 330 288 292 320 344 6 31 43 42 38 36 31 23 19 12 354 325 217 186 197 208 204 185 231 71 151 161 182 100 65 30 190 176 197
310 293 272 253 246 241 234 237 261 302 318 315 317 323 331 0 18 21 27 33 27 18 11 6 341 316 268 231 211 217 219 203 238 219 180 191 211 202 118 111 155 182 220
312 298 278 258 252 250 247 252 265 281 299 309 312 317 316 323 341 348 349 14 10 8 10 7 347 297 264 253 242 223 212 221 239 232 217 222 230 232 218 221 220 212 232
308 304 291 274 261 257 254 256 265 278 284 290 300 310 313 310 312 321 332 1 351 342 352 14 2 316 269 251 245 236 226 225 231 234 239 241 242 244 240 238 240 242 247
298 295 291 276 264 254 251 253 261 272 282 289 293 300 307 310 307 310 322 336 336 337 346 354 354 318 282 259 249 244 236 229 228 233 237 241 245 249 252 251 245 248 254
297 287 284 285 269 256 250 252 261 275 290 293 294 297 306 311 309 299 305 316 320 325 338 337 335 312 293 273 251 247 242 237 233 231 236 241 246 251 253 254 256 261 266
295 285 272 272 272 264 258 256 260 274 284 288 292 298 301 307 310 295 299 310 313 313 315 316 301 304 294 283 268 255 248 244 240 238 237 242 247 250 253 256 260 267 268
290 284 276 268 268 267 265 265 267 272 274 275 281 287 292 298 307 303 300 306 305 301 311 321 313 304 294 276 264 260 253 247 245 246 243 240 243 247 249 254 258 262 266
281 278 276 269 269 272 272 273 272 267 267 273 279 283 289 293 300 298 295 298 293 289 301 310 303 298 294 281 275 267 260 249 244 246 246 243 242 244 246 247 250 256 259
271 273 277 275 273 275 276 276 272 267 267 271 275 281 286 289 288 281 285 286 281 283 288 292 290 286 290 287 282 271 262 252 244 243 244 247 245 239 241 243 247 253 251
257 264 274 274 269 268 271 272 268 263 262 259 264 276 280 277 270 271 281 280 278 279 282 286 287 286 286 286 285 277 272 260 248 242 241 244 245 240 239 244 247 248 243
247 255 264 267 266 262 262 264 263 256 251 249 258 272 271 266 265 271 278 277 274 279 280 280 286 287 286 283 280 275 273 270 257 245 241 244 244 240 240 241 240 239 238
245 241 247 260 263 258 253 254 256 251 249 253 261 266 267 266 262 267 274 278 277 278 277 277 276 275 278 277 276 274 268 263 257 255 249 249 244 238 241 239 239 230 232
243 237 242 254 256 250 242 235 239 244 250 250 248 255 259 262 265 269 273 278 279 278 274 270 271 274 272 271 271 272 267 263 260 262 253 250 249 241 240 238 237 232 232
228 227 245 249 253 257 244 223 226 235 236 241 249 251 250 257 265 275 280 283 278 272 269 269 269 270 273 272 271 270 269 267 264 268 252 245 249 244 241 236 235 232 232
230 236 247 251 252 249 236 219 221 226 230 241 250 253 257 260 269 276 278 278 276 273 275 276 272 272 275 274 270 265 263 270 260 258 262 250 250 247 242 237 235 235 236
242 240 242 249 251 247 240 235 228 223 226 237 251 259 261 264 269 270 272 276 283 283 282 281 275 276 281 279 273 267 263 268 268 257 266 251 245 247 243 236 232 234 238
Height
5896 5895 5894 5893 5893 5893 5893 5893 5892 5891 5889 5887 5886 5886 5886 5886 5885 5884 5884 5884 5884 5884 5884 5884 5884 5883 5885 5886 5888 5891 5892 5894 5896 5897 5900 5901 5903 5905 5906 5908 5910 5912 5914
5897 5896 5895 5894 5894 5894 5894 5894 5893 5892 5891 5889 5888 5887 5887 5887 5886 5886 5885 5885 5885 5885 5884 5884 5883 5882 5882 5884 5886 5888 5890 5892 5895 5896 5898 5899 5901 5903 5904 5906 5908 5910 5911
5898 5897 5896 5895 5895 5895 5895 5894 5894 5894 5893 5891 5890 5889 5888 5888 5887 5887 5886 5885 5885 5885 5884 5883 5882 5881 5881 5882 5884 5887 5889 5891 5893 5895 5896 5897 5899 5900 5901 5904 5905 5906 5908
5898 5898 5898 5897 5896 5896 5895 5895 5895 5895 5894 5892 5891 5891 5889 5889 5888 5888 5887 5886 5885 5884 5884 5884 5883 5881 5880 5881 5883 5886 5887 5889 5891 5893 5894 5895 5898 5899 5900 5902 5902 5903 5906
5898 5899 5899 5898 5897 5896 5896 5896 5895 5895 5895 5893 5892 5892 5891 5890 5889 5888 5887 5886 5885 5884 5883 5884 5883 5881 5880 5880 5882 5884 5887 5889 5890 5891 5893 5894 5896 5898 5899 5900 5900 5901 5904
5898 5899 5899 5899 5898 5897 5896 5896 5896 5896 5896 5895 5893 5892 5891 5890 5889 5888 5887 5886 5885 5884 5884 5883 5883 5882 5880 5881 5882 5884 5887 5889 5889 5891 5892 5893 5894 5896 5897 5898 5899 5901 5902
5897 5898 5899 5899 5898 5897 5896 5896 5896 5896 5896 5896 5895 5893 5891 5890 5889 5888 5887 5886 5885 5885 5884 5883 5883 5882 5881 5881 5882 5884 5885 5887 5889 5890 5891 5892 5893 5895 5897 5897 5899 5900 5901
5896 5897 5898 5898 5898 5897 5897 5896 5896 5896 5896 5896 5895 5894 5892 5890 5889 5888 5886 5886 5886 5885 5884 5883 5882 5882 5881 5881 5882 5883 5885 5887 5888 5889 5890 5891 5892 5894 5895 5897 5898 5899 5900
5894 5895 5896 5897 5897 5897 5897 5897 5896 5896 5896 5896 5895 5894 5893 5892 5890 5888 5887 5886 5885 5884 5884 5883 5882 5881 5882 5881 5882 5884 5885 5887 5888 5889 5890 5891 5892 5893 5894 5895 5896 5898 5899
5893 5894 5895 5895 5895 5896 5896 5896 5895 5896 5896 5896 5896 5895 5894 5893 5891 5889 5887 5886 5885 5883 5882 5882 5881 5882 5881 5881 5882 5884 5885 5887 5888 5888 5889 5891 5892 5893 5893 5893 5895 5897 5898
5892 5893 5893 5894 5895 5895 5895 5895 5895 5896 5896 5896 5896 5895 5894 5893 5891 5889 5887 5886 5884 5883 5882 5881 5881 5881 5882 5882 5881 5882 5884 5885 5887 5888 5889 5890 5892 5893 5893 5894 5895 5896 5897
5891 5891 5891 5892 5893 5894 5894 5895 5895 5895 5895 5895 5895 5894 5893 5892 5891 5889 5886 5885 5883 5882 5880 5880 5879 5879 5880 5881 5882 5881 5882 5884 5885 5887 5888 5890 5891 5893 5894 5894 5895 5895 5896
5889 5888 5889 5890 5891 5892 5893 5894 5893 5893 5893 5892 5892 5892 5892 5892 5891 5889 5886 5885 5883 5881 5880 5879 5878 5878 5879 5880 5880 5881 5882 5883 5884 5886 5887 5889 5890 5891 5892 5893 5893 5894 5895
5888 5887 5886 5886 5888 5889 5890 5891 5890 5890 5890 5890 5889 5890 5890 5890 5890 5889 5887 5885 5883 5881 5880 5879 5879 5877 5877 5877 5878 5879 5880 5881 5882 5883 5884 5886 5888 5889 5890 5891 5891 5892 5893
5887 5886 5885 5885 5885 5886 5887 5888 5888 5888 5888 5888 5888 5888 5887 5887 5887 5886 5885 5884 5883 5881 5881 5880 5878 5875 5875 5874 5874 5875 5876 5878 5880 5880 5881 5882 5883 5886 5887 5889 5890 5891 5891
5883 5883 5882 5882 5882 5883 5884 5885 5885 5885 5885 5886 5885 5885 5884 5883 5883 5883 5882 5881 5880 5879 5878 5877 5876 5875 5874 5874 5874 5874 5874 5874 5875 5877 5877 5878 5878 5880 5883 5885 5887 5887 5888
5881 5880 5879 5878 5879 5879 5880 5881 5880 5881 5881 5881 5881 5881 5880 5880 5880 5879 5878 5876 5876 5875 5874 5873 5872 5871 5870 5869 5868 5869 5869 5870 5872 5873 5873 5873 5873 5875 5877 5880 5882 5883 5884
5876 5877 5876 5874 5874 5875 5875 5876 5876 5876 5877 5878 5877 5876 5875 5875 5876 5875 5873 5872 5871 5870 5870 5869 5868 5866 5864 5864 5864 5864 5864 5865 5865 5866 5868 5868 5868 5870 5872 5873 5876 5878 5879
5871 5871 5871 5871 5871 5871 5871 5871 5872 5873 5873 5873 5872 5872 5871 5870 5870 5869 5868 5867 5867 5866 5865 5864 5863 5861 5860 5859 5859 5858 5858 5859 5859 5860 5862 5864 5864 5864 5866 5868 5870 5873 5875
5865 5866 5867 5867 5867 5866 5867 5867 5867 5867 5869 5868 5867 5866 5866 5867 5866 5864 5864 5863 5862 5861 5859 5857 5855 5855 5855 5854 5853 5853 5852 5854 5854 5856 5857 5858 5859 5860 5861 5863 5865 5868 5871
5859 5860 5861 5861 5861 5861 5862 5861 5861 5862 5863 5862 5861 5860 5861 5860 5860 5858 5858 5857 5856 5855 5853 5851 5849 5849 5849 5849 5848 5848 5848 5848 5850 5851 5852 5854 5855 5856 5857 5859 5861 5863 5866
5852 5853 5855 5855 5855 5855 5855 5855 5856 5855 5856 5855 5855 5854 5854 5855 5855 5855 5853 5853 5853 5850 5848 5847 5845 5843 5842 5843 5843 5843 5844 5844 5844 5845 5847 5849 5850 5851 5853 5854 5857 5858 5861
5844 5846 5847 5846 5845 5844 5844 5846 5847 5847 5848 5848 5848 5848 5848 5849 5850 5851 5849 5849 5847 5844 5843 5840 5838 5838 5836 5836 5837 5837 5838 5838 5839 5840 5841 5843 5844 5846 5848 5849 5851 5853 5856
5835 5836 5838 5839 5837 5836 5835 5833 5834 5836 5838 5841 5841 5844 5845 5843 5843 5844 5843 5841 5840 5838 5837 5835 5833 5832 5831 5830 5831 5831 5831 5832 5833 5834 5835 5837 5839 5841 5842 5844 5846 5849 5851
5828 5828 5830 5830 5829 5826 5827 5827 5827 5828 5832 5834 5835 5839 5841 5839 5839 5838 5835 5834 5833 5833 5834 5832 5829 5828 5827 5825 5825 5825 5825 5825 5826 5827 5829 5830 5832 5835 5837 5839 5842 5844 5847
5819 5818 5816 5819 5820 5822 5821 5824 5824 5823 5825 5828 5830 5833 5835 5834 5832 5831 5827 5828 5828 5827 5827 5826 5822 5820 5820 5819 5819 5820 5819 5819 5820 5821 5824 5824 5826 5829 5832 5833 5836 5839 5842